User: anonymous   Login
Location: Unspecified
(0.0000°N, 0.0000°E)
Time: 19:26:23
(UTC+00:00)
Language:

Orbcomm 16 - Orbit

View from above orbital plane
View from above orbital plane
View from above satellite
View from above satellite

Ground track
Ground track

The orbit is defined by the following mean orbital elements,

1 25416U          26145.29587302 +.00000000 +00000-0 +25735-3 0 00000
2 25416  44.9954   0.0384 0000359 155.0677 205.0189 14.38027660    00
Epoch (UTC): 25 May 2026 07:06:03
Eccentricity: 0.0000359
inclination: 44.9954°
perigee height: 765 km
apogee height: 765 km
right ascension of ascending node: 0.0384°
argument of perigee: 155.0677°
revolutions per day: 14.38027660
mean anomaly at epoch: 205.0189°

The dashed part of the orbit path shows where the satellite is in the earth's shadow,  

DLR